QPF
0.00 0.00 0.00 0.00 0.00 0.00 0.00 0.00 0.00 0.00 0.00 0.00 0.00 0.00 0.00 0.00 0.00 0.00 0.00 0.00 0.00 0.00 0.00 0.00 0.00 0.01 0.01 0.01 0.01 0.01 0.01 0.00 0.00 0.00 0.01 0.02 0.01 0.02 0.01 0.01 0.00 0.01 0.01
0.00 0.00 0.00 0.00 0.00 0.00 0.00 0.00 0.00 0.00 0.00 0.00 0.00 0.00 0.00 0.00 0.00 0.00 0.00 0.00 0.00 0.00 0.00 0.00 0.00 0.01 0.01 0.01 0.00 0.01 0.00 0.00 0.00 0.01 0.02 0.02 0.02 0.02 0.02 0.00 0.00 0.01 0.01
0.00 0.00 0.00 0.00 0.00 0.00 0.00 0.00 0.00 0.00 0.00 0.00 0.00 0.00 0.00 0.00 0.00 0.00 0.00 0.00 0.00 0.00 0.00 0.00 0.01 0.01 0.00 0.00 0.01 0.01 0.00 0.01 0.01 0.01 0.01 0.01 0.02 0.03 0.01 0.00 0.00 0.01 0.01
0.01 0.00 0.00 0.00 0.00 0.00 0.00 0.00 0.00 0.00 0.00 0.00 0.00 0.00 0.00 0.00 0.00 0.00 0.00 0.00 0.00 0.00 0.00 0.00 0.00 0.01 0.01 0.01 0.01 0.01 0.01 0.02 0.03 0.02 0.00 0.00 0.01 0.02 0.01 0.00 0.00 0.01 0.01
0.00 0.00 0.00 0.00 0.00 0.00 0.00 0.00 0.00 0.00 0.00 0.00 0.00 0.00 0.00 0.00 0.00 0.00 0.00 0.00 0.00 0.00 0.00 0.00 0.01 0.01 0.01 0.00 0.01 0.01 0.01 0.02 0.03 0.02 0.01 0.01 0.01 0.01 0.00 0.00 0.00 0.00 0.00
0.00 0.00 0.00 0.00 0.00 0.00 0.00 0.00 0.00 0.00 0.00 0.00 0.00 0.00 0.00 0.00 0.00 0.00 0.00 0.00 0.00 0.00 0.00 0.00 0.00 0.01 0.00 0.00 0.01 0.01 0.02 0.03 0.03 0.02 0.01 0.01 0.01 0.02 0.01 0.01 0.01 0.00 0.01
0.00 0.00 0.00 0.00 0.01 0.01 0.00 0.00 0.00 0.00 0.00 0.00 0.00 0.00 0.00 0.00 0.00 0.00 0.00 0.00 0.00 0.00 0.00 0.00 0.00 0.01 0.00 0.00 0.01 0.01 0.02 0.03 0.02 0.03 0.02 0.01 0.01 0.02 0.02 0.02 0.01 0.00 0.01
0.00 0.01 0.01 0.01 0.01 0.01 0.01 0.01 0.01 0.00 0.00 0.00 0.00 0.00 0.00 0.00 0.00 0.00 0.00 0.01 0.00 0.00 0.00 0.00 0.00 0.00 0.00 0.01 0.01 0.01 0.02 0.02 0.01 0.02 0.02 0.01 0.01 0.02 0.03 0.02 0.01 0.00 0.00
0.02 0.03 0.03 0.03 0.03 0.03 0.03 0.03 0.03 0.01 0.01 0.01 0.01 0.00 0.00 0.01 0.01 0.01 0.01 0.01 0.01 0.00 0.00 0.00 0.00 0.00 0.00 0.01 0.01 0.02 0.02 0.02 0.02 0.02 0.01 0.01 0.02 0.03 0.03 0.02 0.01 0.01 0.01
0.05 0.06 0.05 0.05 0.06 0.06 0.06 0.06 0.07 0.06 0.04 0.03 0.02 0.01 0.01 0.01 0.01 0.01 0.01 0.01 0.01 0.00 0.00 0.00 0.01 0.01 0.01 0.01 0.01 0.02 0.02 0.02 0.01 0.02 0.03 0.01 0.03 0.05 0.05 0.04 0.03 0.02 0.02
0.07 0.10 0.08 0.08 0.09 0.09 0.08 0.08 0.08 0.08 0.06 0.05 0.05 0.03 0.02 0.02 0.02 0.01 0.01 0.02 0.01 0.01 0.00 0.00 0.01 0.01 0.01 0.01 0.02 0.02 0.02 0.01 0.01 0.02 0.02 0.02 0.05 0.07 0.06 0.05 0.04 0.04 0.03
0.06 0.07 0.08 0.09 0.11 0.12 0.10 0.09 0.09 0.08 0.07 0.06 0.05 0.05 0.05 0.04 0.03 0.03 0.03 0.03 0.02 0.02 0.01 0.01 0.01 0.01 0.01 0.00 0.01 0.02 0.01 0.01 0.01 0.01 0.01 0.03 0.06 0.08 0.07 0.06 0.05 0.04 0.04
0.07 0.08 0.08 0.08 0.08 0.09 0.11 0.11 0.10 0.09 0.08 0.08 0.09 0.08 0.07 0.05 0.05 0.05 0.04 0.04 0.04 0.03 0.02 0.02 0.02 0.01 0.01 0.01 0.01 0.01 0.01 0.01 0.01 0.01 0.02 0.03 0.05 0.07 0.07 0.06 0.04 0.04 0.04
0.09 0.09 0.10 0.10 0.09 0.09 0.10 0.11 0.12 0.11 0.10 0.08 0.07 0.08 0.09 0.07 0.05 0.04 0.05 0.06 0.06 0.06 0.04 0.03 0.02 0.02 0.01 0.01 0.01 0.02 0.03 0.01 0.01 0.02 0.02 0.03 0.05 0.07 0.07 0.05 0.04 0.04 0.03
0.10 0.12 0.13 0.17 0.15 0.15 0.15 0.16 0.15 0.16 0.14 0.12 0.09 0.09 0.09 0.08 0.07 0.09 0.10 0.11 0.10 0.11 0.10 0.08 0.05 0.04 0.03 0.03 0.03 0.04 0.04 0.02 0.02 0.03 0.03 0.04 0.06 0.07 0.08 0.06 0.04 0.04 0.03
0.06 0.09 0.13 0.18 0.18 0.17 0.18 0.19 0.20 0.22 0.22 0.19 0.15 0.15 0.14 0.12 0.12 0.14 0.16 0.14 0.14 0.13 0.11 0.10 0.08 0.08 0.06 0.05 0.06 0.06 0.05 0.03 0.03 0.04 0.04 0.05 0.07 0.07 0.08 0.08 0.06 0.07 0.07
0.03 0.06 0.11 0.17 0.21 0.22 0.23 0.24 0.25 0.29 0.31 0.29 0.23 0.22 0.21 0.20 0.19 0.18 0.22 0.22 0.20 0.17 0.15 0.12 0.10 0.08 0.09 0.08 0.09 0.09 0.08 0.06 0.08 0.09 0.11 0.11 0.10 0.08 0.08 0.10 0.10 0.10 0.12
0.02 0.05 0.07 0.11 0.17 0.18 0.17 0.21 0.29 0.33 0.35 0.34 0.32 0.29 0.25 0.22 0.22 0.25 0.25 0.23 0.22 0.24 0.22 0.19 0.15 0.13 0.13 0.14 0.13 0.11 0.10 0.11 0.15 0.17 0.16 0.14 0.12 0.11 0.11 0.12 0.13 0.12 0.11
0.02 0.04 0.05 0.07 0.10 0.10 0.12 0.16 0.25 0.35 0.36 0.33 0.33 0.29 0.23 0.22 0.22 0.21 0.23 0.22 0.24 0.26 0.25 0.22 0.19 0.19 0.19 0.18 0.17 0.15 0.14 0.15 0.15 0.16 0.17 0.15 0.13 0.13 0.14 0.14 0.13 0.09 0.09
0.02 0.03 0.05 0.07 0.08 0.08 0.07 0.10 0.16 0.24 0.28 0.26 0.26 0.26 0.27 0.24 0.23 0.23 0.22 0.22 0.26 0.29 0.29 0.26 0.24 0.24 0.24 0.22 0.18 0.18 0.19 0.18 0.16 0.14 0.14 0.13 0.11 0.12 0.12 0.11 0.10 0.07 0.06
0.02 0.03 0.04 0.06 0.07 0.07 0.06 0.08 0.14 0.18 0.20 0.21 0.23 0.22 0.24 0.25 0.27 0.28 0.24 0.21 0.26 0.30 0.32 0.32 0.31 0.31 0.25 0.22 0.19 0.16 0.16 0.16 0.15 0.13 0.11 0.09 0.08 0.08 0.09 0.09 0.10 0.08 0.05
0.03 0.04 0.05 0.06 0.06 0.06 0.08 0.10 0.12 0.15 0.19 0.21 0.21 0.20 0.17 0.19 0.23 0.27 0.28 0.28 0.33 0.35 0.38 0.38 0.33 0.33 0.28 0.23 0.21 0.18 0.15 0.15 0.12 0.09 0.08 0.07 0.06 0.05 0.05 0.07 0.08 0.07 0.05
0.04 0.06 0.08 0.07 0.07 0.08 0.09 0.10 0.11 0.11 0.13 0.14 0.13 0.13 0.14 0.14 0.14 0.16 0.22 0.30 0.36 0.36 0.37 0.40 0.37 0.33 0.29 0.24 0.21 0.19 0.15 0.13 0.11 0.10 0.08 0.07 0.06 0.05 0.04 0.05 0.05 0.05 0.03
0.07 0.08 0.10 0.08 0.08 0.09 0.09 0.11 0.11 0.10 0.10 0.11 0.10 0.11 0.13 0.14 0.13 0.14 0.17 0.21 0.26 0.30 0.31 0.35 0.38 0.36 0.33 0.30 0.27 0.21 0.15 0.09 0.09 0.10 0.10 0.08 0.06 0.06 0.06 0.04 0.03 0.02 0.01
0.05 0.05 0.05 0.05 0.06 0.07 0.08 0.10 0.12 0.12 0.13 0.15 0.16 0.13 0.09 0.09 0.10 0.12 0.13 0.12 0.13 0.18 0.23 0.27 0.30 0.36 0.36 0.32 0.29 0.26 0.20 0.14 0.10 0.08 0.09 0.08 0.07 0.07 0.05 0.04 0.03 0.02 0.01
0.03 0.03 0.03 0.04 0.05 0.06 0.07 0.07 0.08 0.11 0.14 0.13 0.12 0.10 0.08 0.08 0.08 0.08 0.08 0.07 0.08 0.10 0.13 0.17 0.19 0.22 0.27 0.27 0.26 0.24 0.21 0.19 0.15 0.12 0.10 0.10 0.09 0.08 0.06 0.04 0.03 0.02 0.01
MSLP
1010.18 1009.99 1010.01 1010.24 1010.63 1011.11 1011.56 1011.93 1012.19 1012.33 1012.41 1012.48 1012.62 1012.87 1013.24 1013.70 1014.19 1014.68 1015.09 1015.40 1015.60 1015.73 1015.82 1015.91 1016.02 1016.18 1016.37 1016.57 1016.77 1016.94 1017.09 1017.23 1017.37 1017.53 1017.72 1017.93 1018.15 1018.36 1018.53 1018.66 1018.75 1018.81 1018.86
1009.71 1009.64 1009.77 1010.11 1010.59 1011.12 1011.63 1012.05 1012.34 1012.53 1012.65 1012.77 1012.96 1013.25 1013.64 1014.11 1014.60 1015.06 1015.44 1015.71 1015.88 1015.99 1016.07 1016.16 1016.28 1016.44 1016.62 1016.81 1016.98 1017.12 1017.23 1017.34 1017.46 1017.62 1017.82 1018.06 1018.31 1018.54 1018.74 1018.89 1018.99 1019.06 1019.11
1009.16 1009.22 1009.48 1009.92 1010.49 1011.10 1011.67 1012.15 1012.50 1012.74 1012.91 1013.09 1013.33 1013.65 1014.05 1014.50 1014.96 1015.37 1015.70 1015.93 1016.07 1016.16 1016.24 1016.34 1016.48 1016.66 1016.85 1017.03 1017.17 1017.29 1017.37 1017.46 1017.56 1017.72 1017.93 1018.18 1018.45 1018.71 1018.93 1019.09 1019.20 1019.28 1019.33
1008.66 1008.86 1009.25 1009.80 1010.45 1011.13 1011.76 1012.28 1012.68 1012.98 1013.21 1013.43 1013.70 1014.03 1014.42 1014.84 1015.25 1015.60 1015.87 1016.05 1016.17 1016.26 1016.35 1016.48 1016.65 1016.86 1017.06 1017.25 1017.39 1017.49 1017.56 1017.62 1017.72 1017.87 1018.08 1018.33 1018.61 1018.88 1019.10 1019.28 1019.39 1019.47 1019.54
1008.33 1008.67 1009.17 1009.82 1010.54 1011.26 1011.93 1012.48 1012.92 1013.24 1013.51 1013.76 1014.04 1014.37 1014.74 1015.12 1015.47 1015.76 1015.97 1016.12 1016.22 1016.32 1016.44 1016.61 1016.83 1017.07 1017.31 1017.51 1017.65 1017.75 1017.80 1017.86 1017.95 1018.09 1018.29 1018.54 1018.81 1019.07 1019.28 1019.45 1019.56 1019.64 1019.72
1008.27 1008.73 1009.32 1010.03 1010.79 1011.53 1012.20 1012.75 1013.19 1013.53 1013.81 1014.07 1014.36 1014.68 1015.02 1015.35 1015.65 1015.89 1016.06 1016.18 1016.28 1016.40 1016.55 1016.77 1017.03 1017.31 1017.58 1017.80 1017.96 1018.06 1018.11 1018.17 1018.25 1018.38 1018.56 1018.79 1019.04 1019.27 1019.46 1019.61 1019.71 1019.79 1019.87
1008.50 1009.04 1009.69 1010.43 1011.19 1011.91 1012.54 1013.07 1013.48 1013.80 1014.08 1014.35 1014.63 1014.95 1015.27 1015.57 1015.83 1016.04 1016.18 1016.29 1016.39 1016.53 1016.72 1016.97 1017.26 1017.58 1017.87 1018.11 1018.28 1018.38 1018.44 1018.50 1018.57 1018.69 1018.87 1019.07 1019.28 1019.48 1019.64 1019.75 1019.83 1019.90 1019.98
1008.97 1009.55 1010.22 1010.95 1011.67 1012.33 1012.90 1013.37 1013.74 1014.03 1014.30 1014.58 1014.87 1015.19 1015.51 1015.80 1016.04 1016.23 1016.36 1016.46 1016.57 1016.72 1016.92 1017.19 1017.51 1017.84 1018.14 1018.38 1018.56 1018.67 1018.73 1018.79 1018.86 1018.98 1019.13 1019.31 1019.50 1019.66 1019.78 1019.87 1019.93 1019.98 1020.06
1009.59 1010.18 1010.83 1011.50 1012.15 1012.73 1013.21 1013.61 1013.92 1014.20 1014.46 1014.75 1015.07 1015.40 1015.74 1016.04 1016.29 1016.47 1016.59 1016.69 1016.80 1016.94 1017.15 1017.42 1017.72 1018.04 1018.33 1018.57 1018.73 1018.84 1018.91 1018.97 1019.04 1019.16 1019.30 1019.47 1019.63 1019.77 1019.88 1019.95 1019.99 1020.04 1020.11
1010.24 1010.80 1011.39 1011.99 1012.55 1013.03 1013.43 1013.75 1014.02 1014.27 1014.55 1014.86 1015.22 1015.59 1015.96 1016.28 1016.54 1016.73 1016.85 1016.94 1017.04 1017.17 1017.35 1017.59 1017.87 1018.16 1018.42 1018.63 1018.78 1018.87 1018.94 1019.00 1019.08 1019.19 1019.34 1019.50 1019.66 1019.80 1019.91 1019.97 1020.02 1020.06 1020.13
1010.83 1011.33 1011.85 1012.36 1012.82 1013.20 1013.52 1013.78 1014.02 1014.27 1014.57 1014.92 1015.31 1015.73 1016.14 1016.49 1016.76 1016.95 1017.07 1017.15 1017.23 1017.34 1017.49 1017.70 1017.93 1018.18 1018.40 1018.57 1018.70 1018.77 1018.83 1018.89 1018.97 1019.08 1019.23 1019.41 1019.58 1019.74 1019.86 1019.95 1020.02 1020.07 1020.14
1011.29 1011.72 1012.17 1012.59 1012.96 1013.26 1013.51 1013.73 1013.95 1014.21 1014.53 1014.91 1015.35 1015.81 1016.24 1016.61 1016.89 1017.08 1017.20 1017.27 1017.33 1017.42 1017.55 1017.71 1017.92 1018.12 1018.30 1018.44 1018.54 1018.60 1018.64 1018.68 1018.76 1018.87 1019.03 1019.22 1019.41 1019.60 1019.76 1019.89 1019.99 1020.08 1020.16
1011.62 1011.99 1012.36 1012.71 1013.01 1013.25 1013.45 1013.64 1013.85 1014.12 1014.46 1014.87 1015.32 1015.79 1016.23 1016.60 1016.88 1017.07 1017.18 1017.24 1017.31 1017.39 1017.51 1017.67 1017.85 1018.03 1018.20 1018.32 1018.39 1018.43 1018.45 1018.48 1018.54 1018.64 1018.79 1018.99 1019.20 1019.42 1019.63 1019.81 1019.96 1020.09 1020.20
1011.86 1012.17 1012.49 1012.78 1013.02 1013.23 1013.40 1013.57 1013.78 1014.05 1014.39 1014.79 1015.24 1015.68 1016.09 1016.43 1016.68 1016.86 1016.97 1017.05 1017.13 1017.24 1017.38 1017.56 1017.77 1017.97 1018.14 1018.26 1018.33 1018.35 1018.36 1018.36 1018.40 1018.48 1018.61 1018.79 1019.02 1019.26 1019.50 1019.74 1019.94 1020.12 1020.27
1012.08 1012.35 1012.62 1012.87 1013.08 1013.26 1013.42 1013.59 1013.79 1014.04 1014.35 1014.71 1015.10 1015.48 1015.82 1016.09 1016.31 1016.46 1016.57 1016.68 1016.81 1016.97 1017.18 1017.43 1017.70 1017.95 1018.16 1018.31 1018.40 1018.43 1018.43 1018.42 1018.42 1018.46 1018.56 1018.71 1018.92 1019.17 1019.43 1019.70 1019.95 1020.18 1020.37
1012.36 1012.59 1012.82 1013.04 1013.23 1013.40 1013.56 1013.72 1013.90 1014.12 1014.37 1014.65 1014.93 1015.20 1015.43 1015.62 1015.77 1015.89 1016.01 1016.16 1016.36 1016.61 1016.92 1017.27 1017.63 1017.97 1018.26 1018.48 1018.61 1018.68 1018.68 1018.66 1018.64 1018.64 1018.69 1018.80 1018.98 1019.20 1019.46 1019.74 1020.02 1020.28 1020.51
1012.76 1012.94 1013.13 1013.32 1013.50 1013.66 1013.82 1013.97 1014.12 1014.28 1014.45 1014.62 1014.76 1014.88 1014.98 1015.05 1015.12 1015.21 1015.34 1015.54 1015.82 1016.18 1016.60 1017.07 1017.55 1018.00 1018.39 1018.69 1018.90 1019.02 1019.07 1019.06 1019.03 1019.01 1019.02 1019.07 1019.19 1019.37 1019.60 1019.87 1020.16 1020.44 1020.70
1013.29 1013.41 1013.56 1013.72 1013.88 1014.03 1014.17 1014.31 1014.43 1014.52 1014.59 1014.62 1014.61 1014.58 1014.52 1014.47 1014.46 1014.50 1014.64 1014.88 1015.24 1015.70 1016.23 1016.82 1017.41 1017.97 1018.47 1018.88 1019.18 1019.38 1019.49 1019.53 1019.52 1019.50 1019.48 1019.51 1019.58 1019.70 1019.89 1020.12 1020.39 1020.67 1020.95
1013.95 1014.00 1014.09 1014.19 1014.32 1014.46 1014.59 1014.70 1014.77 1014.80 1014.76 1014.67 1014.51 1014.32 1014.12 1013.96 1013.86 1013.86 1013.99 1014.27 1014.68 1015.21 1015.83 1016.51 1017.19 1017.84 1018.43 1018.93 1019.34 1019.64 1019.84 1019.96 1020.02 1020.04 1020.04 1020.04 1020.08 1020.17 1020.31 1020.50 1020.73 1021.00 1021.27
1014.71 1014.67 1014.67 1014.71 1014.79 1014.89 1015.00 1015.08 1015.12 1015.09 1014.97 1014.76 1014.48 1014.16 1013.84 1013.58 1013.41 1013.37 1013.49 1013.78 1014.22 1014.78 1015.44 1016.15 1016.87 1017.57 1018.22 1018.80 1019.29 1019.70 1020.02 1020.26 1020.42 1020.52 1020.58 1020.63 1020.67 1020.73 1020.84 1020.99 1021.19 1021.43 1021.69
1015.51 1015.37 1015.28 1015.24 1015.25 1015.30 1015.37 1015.43 1015.43 1015.35 1015.17 1014.89 1014.52 1014.12 1013.72 1013.39 1013.17 1013.10 1013.21 1013.48 1013.91 1014.46 1015.09 1015.78 1016.48 1017.17 1017.83 1018.45 1019.01 1019.52 1019.97 1020.35 1020.65 1020.88 1021.05 1021.17 1021.26 1021.35 1021.45 1021.58 1021.75 1021.96 1022.20
1016.32 1016.08 1015.88 1015.74 1015.67 1015.66 1015.69 1015.71 1015.69 1015.59 1015.38 1015.06 1014.66 1014.22 1013.79 1013.43 1013.19 1013.09 1013.18 1013.42 1013.80 1014.29 1014.85 1015.45 1016.07 1016.69 1017.31 1017.92 1018.52 1019.11 1019.67 1020.19 1020.65 1021.04 1021.36 1021.61 1021.80 1021.95 1022.08 1022.22 1022.38 1022.57 1022.78
1017.11 1016.78 1016.47 1016.23 1016.06 1015.98 1015.95 1015.94 1015.91 1015.80 1015.59 1015.28 1014.89 1014.45 1014.04 1013.69 1013.45 1013.36 1013.42 1013.62 1013.93 1014.32 1014.76 1015.23 1015.71 1016.22 1016.74 1017.29 1017.89 1018.51 1019.16 1019.81 1020.43 1020.99 1021.48 1021.89 1022.22 1022.47 1022.68 1022.86 1023.04 1023.22 1023.41
1017.86 1017.46 1017.06 1016.71 1016.45 1016.29 1016.21 1016.16 1016.11 1016.01 1015.83 1015.55 1015.20 1014.82 1014.45 1014.14 1013.93 1013.84 1013.89 1014.04 1014.27 1014.55 1014.85 1015.16 1015.48 1015.83 1016.22 1016.68 1017.22 1017.84 1018.53 1019.27 1020.02 1020.74 1021.40 1021.98 1022.47 1022.87 1023.18 1023.44 1023.65 1023.85 1024.03
1018.58 1018.13 1017.65 1017.22 1016.88 1016.64 1016.50 1016.42 1016.36 1016.27 1016.11 1015.89 1015.60 1015.28 1014.97 1014.72 1014.55 1014.48 1014.51 1014.62 1014.77 1014.94 1015.10 1015.26 1015.42 1015.60 1015.84 1016.18 1016.63 1017.20 1017.89 1018.67 1019.50 1020.34 1021.15 1021.89 1022.54 1023.08 1023.53 1023.89 1024.17 1024.40 1024.59
1019.27 1018.80 1018.28 1017.79 1017.38 1017.08 1016.89 1016.77 1016.69 1016.61 1016.48 1016.30 1016.07 1015.82 1015.57 1015.37 1015.24 1015.19 1015.21 1015.27 1015.36 1015.43 1015.49 1015.51 1015.53 1015.57 1015.67 1015.87 1016.21 1016.70 1017.34 1018.10 1018.96 1019.87 1020.78 1021.65 1022.44 1023.13 1023.71 1024.17 1024.54 1024.82 1025.03
Thickness
5795 5796 5792 5789 5786 5785 5784 5783 5784 5784 5783 5782 5781 5779 5777 5775 5773 5772 5770 5768 5766 5765 5763 5762 5760 5758 5756 5755 5752 5750 5748 5746 5745 5743 5742 5740 5738 5737 5735 5734 5733 5731 5730
5801 5796 5792 5788 5784 5782 5781 5780 5780 5779 5779 5778 5777 5776 5774 5772 5770 5769 5767 5765 5764 5763 5761 5760 5758 5756 5754 5752 5750 5748 5746 5744 5743 5742 5741 5739 5737 5735 5734 5732 5731 5730 5729
5800 5795 5790 5786 5783 5780 5778 5777 5776 5775 5774 5774 5773 5771 5770 5768 5767 5765 5764 5762 5761 5760 5759 5757 5755 5753 5752 5750 5748 5746 5744 5743 5742 5741 5739 5737 5736 5734 5733 5731 5730 5728 5727
5798 5793 5788 5784 5780 5777 5775 5773 5772 5771 5770 5769 5768 5767 5765 5764 5763 5762 5760 5759 5758 5757 5755 5754 5752 5751 5749 5747 5746 5744 5743 5741 5740 5739 5737 5736 5735 5733 5731 5730 5728 5727 5725
5794 5789 5785 5782 5778 5775 5772 5770 5768 5766 5765 5764 5763 5762 5761 5760 5759 5758 5756 5755 5755 5753 5752 5751 5749 5748 5746 5745 5744 5742 5741 5739 5738 5736 5735 5734 5733 5732 5730 5728 5727 5725 5724
5789 5785 5782 5779 5776 5772 5769 5767 5765 5763 5761 5760 5759 5758 5756 5755 5754 5753 5752 5752 5751 5750 5749 5747 5746 5745 5743 5742 5741 5740 5738 5737 5736 5734 5733 5732 5731 5730 5729 5727 5725 5724 5722
5783 5781 5778 5774 5772 5769 5766 5763 5761 5759 5757 5756 5754 5753 5752 5751 5750 5749 5748 5748 5747 5746 5745 5744 5743 5741 5740 5739 5738 5737 5736 5735 5734 5732 5731 5730 5729 5728 5727 5726 5724 5723 5721
5778 5775 5772 5769 5767 5764 5761 5759 5756 5755 5753 5752 5750 5749 5748 5747 5746 5745 5745 5744 5743 5742 5741 5740 5739 5738 5737 5736 5736 5735 5734 5734 5732 5731 5730 5729 5728 5726 5725 5724 5723 5721 5720
5773 5769 5766 5764 5761 5758 5756 5754 5752 5750 5748 5747 5746 5745 5744 5743 5742 5741 5741 5740 5739 5738 5737 5736 5735 5735 5734 5733 5733 5733 5732 5731 5731 5730 5729 5727 5726 5725 5724 5722 5721 5720 5719
5765 5763 5761 5758 5756 5753 5750 5749 5748 5746 5744 5743 5742 5740 5740 5739 5738 5737 5737 5736 5735 5734 5733 5732 5732 5731 5731 5730 5730 5730 5730 5729 5728 5728 5727 5726 5725 5724 5723 5721 5720 5719 5718
5758 5756 5755 5753 5751 5748 5746 5745 5743 5742 5741 5739 5738 5736 5735 5734 5734 5733 5733 5732 5731 5731 5730 5729 5728 5728 5728 5727 5727 5727 5727 5726 5726 5725 5725 5725 5724 5723 5722 5720 5719 5718 5717
5750 5749 5749 5748 5746 5744 5743 5742 5740 5738 5737 5737 5735 5733 5731 5730 5729 5729 5728 5728 5728 5727 5726 5726 5725 5724 5724 5724 5724 5724 5724 5723 5723 5723 5723 5723 5722 5721 5720 5719 5718 5716 5715
5745 5745 5744 5743 5741 5740 5739 5738 5736 5735 5734 5733 5731 5729 5727 5726 5725 5725 5724 5723 5723 5723 5722 5722 5721 5721 5721 5720 5720 5720 5720 5720 5720 5720 5720 5720 5720 5719 5718 5717 5716 5715 5714
5739 5739 5739 5738 5737 5735 5734 5732 5731 5729 5728 5727 5725 5724 5723 5723 5721 5721 5721 5719 5719 5718 5718 5718 5717 5717 5716 5716 5717 5717 5717 5717 5717 5717 5717 5717 5716 5716 5715 5714 5713 5712 5711
5732 5732 5732 5731 5731 5730 5728 5726 5725 5724 5723 5722 5721 5720 5719 5718 5717 5717 5717 5715 5715 5714 5713 5713 5712 5712 5712 5712 5712 5712 5713 5713 5713 5713 5713 5713 5713 5712 5711 5710 5710 5708 5707
5725 5726 5727 5725 5724 5723 5722 5721 5720 5719 5718 5717 5715 5714 5713 5713 5713 5713 5713 5712 5711 5710 5709 5708 5708 5707 5707 5707 5707 5708 5708 5709 5709 5709 5709 5709 5709 5708 5707 5706 5706 5705 5704
5718 5719 5720 5720 5718 5716 5715 5715 5714 5714 5713 5711 5709 5708 5707 5707 5707 5708 5708 5707 5707 5706 5704 5703 5703 5703 5702 5702 5702 5702 5702 5703 5704 5703 5703 5703 5703 5703 5702 5701 5700 5699 5698
5710 5711 5712 5713 5711 5709 5708 5708 5708 5708 5707 5705 5703 5702 5701 5702 5702 5702 5703 5703 5703 5701 5700 5699 5699 5698 5697 5696 5695 5695 5696 5697 5697 5696 5696 5695 5696 5695 5695 5694 5693 5692 5691
5701 5701 5702 5703 5703 5702 5702 5701 5700 5699 5698 5698 5696 5695 5696 5696 5696 5697 5698 5699 5698 5697 5696 5695 5695 5693 5691 5689 5688 5687 5688 5688 5688 5688 5688 5688 5687 5687 5687 5686 5685 5685 5684
5692 5693 5693 5695 5695 5696 5695 5693 5692 5690 5690 5690 5688 5689 5690 5690 5691 5692 5693 5693 5693 5693 5692 5691 5690 5688 5686 5684 5682 5679 5677 5678 5678 5679 5679 5679 5678 5678 5677 5677 5676 5675 5674
5683 5683 5684 5685 5686 5687 5687 5685 5683 5682 5681 5681 5682 5683 5685 5685 5686 5686 5688 5689 5689 5689 5689 5687 5685 5682 5679 5678 5674 5669 5667 5668 5668 5668 5669 5669 5669 5668 5667 5666 5666 5665 5664
5671 5673 5674 5675 5676 5678 5679 5678 5677 5676 5674 5674 5675 5675 5677 5678 5679 5680 5681 5682 5684 5685 5684 5683 5682 5678 5675 5674 5671 5665 5660 5658 5658 5658 5659 5659 5658 5657 5656 5655 5655 5654 5653
5660 5661 5664 5665 5666 5668 5670 5670 5670 5669 5668 5667 5667 5667 5669 5670 5672 5672 5674 5676 5677 5678 5678 5678 5677 5675 5671 5669 5668 5665 5660 5656 5650 5647 5648 5648 5648 5647 5645 5644 5643 5642 5641
5649 5651 5653 5655 5657 5658 5660 5661 5662 5660 5658 5657 5657 5657 5659 5660 5663 5665 5666 5667 5669 5670 5671 5671 5670 5670 5669 5665 5662 5661 5661 5659 5651 5641 5638 5637 5637 5635 5634 5632 5631 5630 5629
5639 5641 5644 5645 5647 5649 5650 5651 5651 5650 5649 5648 5648 5648 5650 5651 5653 5655 5657 5658 5660 5661 5663 5664 5664 5663 5662 5660 5657 5655 5653 5650 5649 5644 5634 5628 5625 5623 5622 5621 5620 5619 5618
5629 5631 5633 5635 5636 5638 5639 5640 5639 5639 5638 5638 5638 5638 5639 5640 5642 5644 5647 5648 5649 5651 5652 5654 5655 5654 5653 5652 5651 5649 5648 5646 5643 5640 5633 5625 5618 5613 5612 5610 5609 5609 5608